Simultaneous Nadir Overpasses (SNOs) Predictions

Prediction of SNOs between GOES-16 and AQUA Satellite Orbit:

Table of predicted SNOs for the next 14.0 days since TLE Epoch: 3/23/2017
Index Date Time (GOES-16) GOES-16 Lat,Lon AQUA Lat,Lon Distance(km) Time Diff (sec)
1 03/24/2017 07:31:48 0.00, -89.49 -0.02, -89.35 14.76 80
2 03/26/2017 07:19:38 0.00, -89.49 -0.64, -86.40 350.31 80
3 03/26/2017 19:41:02 -0.00, -89.49 -0.44, -91.60 240.12 80
4 03/28/2017 19:31:32 -0.00, -89.49 0.19, -88.65 95.88 80
5 03/29/2017 07:52:48 0.00, -89.50 0.90, -93.81 490.03 80
6 03/30/2017 19:19:22 0.00, -89.50 0.83, -85.70 432.00 80
7 03/31/2017 07:40:38 -0.00, -89.50 0.26, -90.86 154.05 80
8 04/02/2017 07:25:47 -0.00, -89.51 -0.32, -87.90 182.10 80
9 04/02/2017 19:47:12 -0.00, -89.50 -0.74, -93.10 408.79 80
10 04/04/2017 19:35:01 -0.00, -89.51 -0.14, -90.15 72.08 80
11 04/06/2017 19:25:31 -0.00, -89.53 0.52, -87.20 265.25 80




NCC Satellite Simultaneous Nadir Overpasses (SNOs) Prediction Service
